Regional Weather Roundup
Issued by NWS Albany, NY

Home | Current Version | Previous Version | Text Only | Print | Product List | Glossary On
Versions: 1 2 3 4 5 6 7 8 9 10 11 12 13 14 15 16 17 18 19 20 21 22 23 24 25 26 27 28 29 30 31 32 33 34 35 36 37 38 39 40 41 42 43 44 45 46 47 48 49 50
000
ASUS41 KALY 061210
RWRALY

NEW YORK STATE HOURLY WEATHER ROUNDUP
NATIONAL WEATHER SERVICE ALBANY NY
700 AM EST FRI MAR 06 2015

NOTE: "FAIR" INDICATES FEW OR NO CLOUDS BELOW 12,000 FEET WITH NO
SIGNIFICANT WEATHER AND/OR NO OBSTRUCTIONS TO VISIBILITY.

NYZ032-033-038>043-046>054-057>066-NYZ062>081-061300-
EAST


CITY           SKY/WX    TMP DP  RH WIND       PRES   REMARKS
ALBANY         PTCLDY     6  -2  69 NW7       30.50R WCI  -6
GLENS FALLS    MOCLDY   -13 -18  78 CALM      30.49R
POUGHKEEPSIE   FAIR       0  -5  79 CALM      30.52R
NEWBURGH       CLEAR      0  -4  85 CALM      30.49R
MONTGOMERY     CLEAR     -1  -4  87 CALM      30.48R
WHITE PLAINS   CLEAR      1  -4  79 NW12      30.48R WCI -16
ISLIP          CLEAR     13   1  59 N6        30.49R WCI   4
NEW YORK CITY  CLEAR     15   2  56 N7        30.52R WCI   5
CENTRAL PARK   CLEAR     13   1  59 VRB6      30.53R WCI   4
$$

NYZ005>009-017-018-044>046-055-056-061300-
CENTRAL


CITY           SKY/WX    TMP DP  RH WIND       PRES   REMARKS
FULTON         PTCLDY    -6 -11  79 CALM      30.51R
SYRACUSE       LGT SNOW   0   0 100 S3        30.51R FOG
ROME           PTCLDY   -11 -15  82 CALM      30.52S FOG
ELMIRA         MOCLDY    -4  -8  83 W6        30.49R WCI -16
BINGHAMTON     MOCLDY    -1  -5  82 W5        30.38S WCI -11
MONTICELLO     PTCLDY     0  -2  92 W3        30.40R
$$

NYZ026>034-041>043-061300-
NORTH


CITY           SKY/WX    TMP DP  RH WIND       PRES   REMARKS
WATERTOWN      FAIR      -5 -11  75 S3        30.50S
FORT DRUM      NOT AVBL
MASSENA        PTCLDY   -12 -18  74 SW7       30.48S WCI -27
SARANAC LAKE   MOCLDY   -27 -33  73 CALM      30.29S
PLATTSBURGH    PTCLDY   -13 -17  82 CALM      30.46R
$$

NYZ001>004-010>016-019>021-061300-
WEST


CITY           SKY/WX    TMP DP  RH WIND       PRES   REMARKS
NIAGARA FALLS  PTCLDY     1  -3  83 SW9       30.50R WCI -14
BUFFALO        MOCLDY     0  -5  79 S8        30.49S WCI -14
DUNKIRK        MOCLDY     1  -5  75 SW6       30.51S WCI -10
JAMESTOWN      MOCLDY    -4  -9  77 S3        30.39S
WELLSVILLE     PTCLDY    -2  -6  83 CALM      30.36R
ROCHESTER      FLURRIES   2  -4  76 SW10      30.50S WCI -14
PENN YAN       MOCLDY     1  -6  72 SW13      30.47R WCI -17
$$

             KEY
       WCI = WIND CHILL INDEX
       VSB = VISIBILITY
       HX  = HEAT INDEX
$$



USA.gov is the U.S. government's official web portal to all federal, state and local government web resources and services.